Portada
METAR-TAF:

METAR-TAF

Aeroports :

Maragha, Iran

latitud: 37-20-55N, longitud: 046-07-35E, altitud: 1340 m

Observació

L'informe es va fer fa 1 hora i 33 minuts, a les 21:00 UTC
Vent 4 kt del Est/Sud-Est
Temperatura 4°C
Humitat 38%
Pressió 1023 hPa
Visibilitat 10 km o més
sense núvols per sota de 1500 mi sense presència de cumulonimbus.

METAR: OITM 132100Z 11004KT CAVOK 04/M09 Q1023

Hora: 02:03 (22:33 UTC)


TAF: manca

Observacions i pronòstics meteorològics de més de 4000 aeroports (METAR i TAF).

Les estacions disponibles són els punts grocs i vermells al mapa.

Posi el ratolí al punt desitjat per veure el nom de l'estació.

Feu clic per veure les observacions i els pronòstics meteorològics.

Per canviar el mapa: feu clic els botons verds amb una creu de color negre per apropar; al botó verd amb un guió per allunyar la imatge; o en les fletxes verdes per a mapes adjacents.


METAR-TAF: